N125HM KMCO-KMSY

Flight info

Callsign N125HM
Flight time 1h 18m
Altitude 34000
Route RDSOX1 JFRYS PATOY Q116 JAWJA CABLO DEFUN J2 SJI MNSTR1
Aircraft C750/M-SBDE3FGHRWXY/L

Departure

Time 2026-04-24 21:30
Airport Orlando International Airport (KMCO)

Arrival

Time 2026-04-24 22:48
Airport Louis Armstrong New Orleans International Airport (KMSY)
Time Latitude Longitude Altitude Speed Heading
2026-04-24 21:00 28.42133 -81.33135 91 ft 0 kts 360°
2026-04-24 21:23 28.42165 -81.33135 91 ft 17 kts
2026-04-24 21:23 28.42309 -81.33092 91 ft 21 kts 27°
2026-04-24 21:24 28.42445 -81.33013 91 ft 21 kts 27°
2026-04-24 21:24 28.42585 -81.32945 91 ft 21 kts 19°
2026-04-24 21:24 28.42730 -81.32923 91 ft 20 kts 355°
2026-04-24 21:24 28.42872 -81.32931 91 ft 19 kts
2026-04-24 21:25 28.42974 -81.32929 91 ft 11 kts
2026-04-24 21:25 28.43061 -81.32926 91 ft 17 kts
2026-04-24 21:25 28.43264 -81.32927 91 ft 30 kts
2026-04-24 21:25 28.43452 -81.32931 89 ft 21 kts
2026-04-24 21:26 28.43605 -81.32932 89 ft 21 kts
2026-04-24 21:26 28.43760 -81.32930 88 ft 21 kts
2026-04-24 21:26 28.43913 -81.32921 88 ft 21 kts 13°
2026-04-24 21:26 28.44081 -81.32873 88 ft 28 kts 14°
2026-04-24 21:27 28.44276 -81.32868 88 ft 27 kts
2026-04-24 21:27 28.44466 -81.32864 88 ft 26 kts
2026-04-24 21:27 28.44653 -81.32864 88 ft 26 kts 360°
2026-04-24 21:27 28.44768 -81.32862 88 ft 19 kts
2026-04-24 21:28 28.44809 -81.32804 88 ft 0 kts 89°
2026-04-24 21:29 28.44809 -81.32803 88 ft 0 kts 89°
2026-04-24 21:29 28.44776 -81.32717 88 ft 15 kts 144°
2026-04-24 21:29 28.44566 -81.32694 88 ft 60 kts 179°
2026-04-24 21:29 28.43799 -81.32682 120 ft 155 kts 180°
2026-04-24 21:30 28.42528 -81.32710 735 ft 206 kts 179°
2026-04-24 21:30 28.41031 -81.32695 1822 ft 212 kts 177°
2026-04-24 21:30 28.39594 -81.32708 2695 ft 209 kts 181°
2026-04-24 21:30 28.38148 -81.33192 3263 ft 223 kts 208°
2026-04-24 21:31 28.36999 -81.34442 3771 ft 237 kts 242°
2026-04-24 21:31 28.36534 -81.36297 4273 ft 252 kts 266°
2026-04-24 21:31 28.36586 -81.38347 4888 ft 266 kts 274°
2026-04-24 21:31 28.36778 -81.40468 5622 ft 270 kts 277°
2026-04-24 21:32 28.37012 -81.42609 6352 ft 272 kts 277°
2026-04-24 21:32 28.37256 -81.44765 7051 ft 274 kts 277°
2026-04-24 21:32 28.37501 -81.46912 7754 ft 276 kts 277°
2026-04-24 21:32 28.37748 -81.49095 8480 ft 276 kts 277°
2026-04-24 21:33 28.37997 -81.51271 9168 ft 277 kts 278°
2026-04-24 21:33 28.38164 -81.52730 9592 ft 278 kts 278°
2026-04-24 21:33 28.38500 -81.55679 10369 ft 289 kts 278°
2026-04-24 21:33 28.38763 -81.57992 10973 ft 301 kts 278°
2026-04-24 21:34 28.39039 -81.60427 11587 ft 313 kts 278°
2026-04-24 21:34 28.39327 -81.62960 12246 ft 324 kts 278°
2026-04-24 21:34 28.39620 -81.65562 12940 ft 331 kts 278°
2026-04-24 21:34 28.39917 -81.68188 13651 ft 337 kts 278°
2026-04-24 21:35 28.40222 -81.70882 14344 ft 343 kts 278°
2026-04-24 21:35 28.40538 -81.73689 15082 ft 348 kts 278°
2026-04-24 21:35 28.40849 -81.76472 15774 ft 352 kts 278°
2026-04-24 21:35 28.41165 -81.79293 16478 ft 355 kts 279°
2026-04-24 21:36 28.41568 -81.82157 17173 ft 356 kts 285°
2026-04-24 21:36 28.42605 -81.84799 17836 ft 348 kts 308°
2026-04-24 21:36 28.44293 -81.86769 18560 ft 341 kts 314°
2026-04-24 21:36 28.46047 -81.88766 19289 ft 351 kts 315°
2026-04-24 21:37 28.47864 -81.90773 20012 ft 360 kts 315°
2026-04-24 21:37 28.49745 -81.92848 20745 ft 368 kts 315°
2026-04-24 21:37 28.51663 -81.94957 21479 ft 375 kts 315°
2026-04-24 21:37 28.53608 -81.97099 22210 ft 381 kts 315°
2026-04-24 21:38 28.55570 -81.99258 22937 ft 387 kts 315°
2026-04-24 21:38 28.57579 -82.01472 23692 ft 391 kts 315°
2026-04-24 21:38 28.59573 -82.03670 24438 ft 395 kts 315°
2026-04-24 21:38 28.61627 -82.05937 25185 ft 397 kts 315°
2026-04-24 21:39 28.63722 -82.08247 25943 ft 400 kts 315°
2026-04-24 21:39 28.65782 -82.10519 26684 ft 401 kts 315°
2026-04-24 21:39 28.67808 -82.12756 27410 ft 402 kts 315°
2026-04-24 21:39 28.69866 -82.15033 28145 ft 402 kts 315°
2026-04-24 21:40 28.71905 -82.17284 28877 ft 402 kts 315°
2026-04-24 21:40 28.73920 -82.19517 29598 ft 401 kts 315°
2026-04-24 21:40 28.75940 -82.21753 30324 ft 400 kts 315°
2026-04-24 21:40 28.77958 -82.23986 31050 ft 398 kts 315°
2026-04-24 21:41 28.79964 -82.26210 31774 ft 396 kts 314°
2026-04-24 21:41 28.81963 -82.28426 32499 ft 393 kts 314°
2026-04-24 21:41 28.83929 -82.30606 33219 ft 390 kts 314°
2026-04-24 21:41 28.85860 -82.32752 33845 ft 386 kts 314°
2026-04-24 21:42 28.87827 -82.34938 33906 ft 395 kts 314°
2026-04-24 21:42 28.91904 -82.39475 33922 ft 415 kts 314°
2026-04-24 21:43 28.96164 -82.44217 33931 ft 432 kts 314°
2026-04-24 21:43 29.00600 -82.49159 33926 ft 448 kts 314°
2026-04-24 21:44 29.05198 -82.54291 33928 ft 461 kts 314°
2026-04-24 21:44 29.09891 -82.59535 33923 ft 473 kts 315°
2026-04-24 21:45 29.14719 -82.64937 33927 ft 483 kts 315°
2026-04-24 21:45 29.19618 -82.70424 33927 ft 490 kts 314°
2026-04-24 21:46 29.24583 -82.75996 33920 ft 491 kts 314°
2026-04-24 21:46 29.29496 -82.81516 33924 ft 490 kts 314°
2026-04-24 21:47 29.34397 -82.87033 33921 ft 490 kts 314°
2026-04-24 21:47 29.39322 -82.92584 33918 ft 490 kts 314°
2026-04-24 21:48 29.44234 -82.98126 33926 ft 490 kts 314°
2026-04-24 21:48 29.49127 -83.03657 33924 ft 491 kts 314°
2026-04-24 21:49 29.54050 -83.09227 33930 ft 490 kts 314°
2026-04-24 21:49 29.58923 -83.14751 33931 ft 490 kts 314°
2026-04-24 21:50 29.63797 -83.20283 33927 ft 485 kts 314°
2026-04-24 21:50 29.68643 -83.25792 33920 ft 483 kts 314°
2026-04-24 21:51 29.73495 -83.31314 33924 ft 481 kts 314°
2026-04-24 21:51 29.78296 -83.36790 33916 ft 480 kts 314°
2026-04-24 21:52 29.83067 -83.42236 33920 ft 479 kts 314°
2026-04-24 21:52 29.87843 -83.47694 33925 ft 477 kts 314°
2026-04-24 21:53 29.92589 -83.53127 33924 ft 476 kts 314°
2026-04-24 21:53 29.97346 -83.58582 33932 ft 475 kts 314°
2026-04-24 21:54 30.02083 -83.64021 33933 ft 478 kts 314°
2026-04-24 21:54 30.06861 -83.69516 33937 ft 481 kts 314°
2026-04-24 21:55 30.11699 -83.75088 33933 ft 485 kts 314°
2026-04-24 21:55 30.16492 -83.80615 33921 ft 488 kts 314°
2026-04-24 21:55 30.18632 -83.83740 33935 ft 487 kts 303°
2026-04-24 21:56 30.20561 -83.86993 33911 ft 489 kts 305°
2026-04-24 21:56 30.24431 -83.93508 33923 ft 489 kts 304°
2026-04-24 21:57 30.28317 -84.00069 33913 ft 489 kts 304°
2026-04-24 21:57 30.32213 -84.06660 33914 ft 488 kts 304°
2026-04-24 21:58 30.36083 -84.13219 33921 ft 488 kts 304°
2026-04-24 21:58 30.39945 -84.19764 33917 ft 488 kts 304°
2026-04-24 21:59 30.43818 -84.26350 33922 ft 488 kts 304°
2026-04-24 21:59 30.47657 -84.32880 33916 ft 488 kts 304°
2026-04-24 22:00 30.51538 -84.39496 33914 ft 489 kts 304°
2026-04-24 22:00 30.55390 -84.46074 33913 ft 489 kts 304°
2026-04-24 22:01 30.59263 -84.52697 33909 ft 489 kts 304°
2026-04-24 22:01 30.63107 -84.59288 33904 ft 490 kts 304°
2026-04-24 22:02 30.66968 -84.65911 33904 ft 490 kts 304°
2026-04-24 22:02 30.70813 -84.72520 33903 ft 490 kts 304°
2026-04-24 22:03 30.74691 -84.79195 33893 ft 491 kts 304°
2026-04-24 22:03 30.77512 -84.86427 33915 ft 493 kts 278°
2026-04-24 22:04 30.77843 -84.94452 33905 ft 495 kts 274°
2026-04-24 22:04 30.78115 -85.02536 33901 ft 495 kts 273°
2026-04-24 22:05 30.78389 -85.10617 33902 ft 496 kts 274°
2026-04-24 22:05 30.78658 -85.18720 33903 ft 497 kts 274°
2026-04-24 22:06 30.78922 -85.26788 33904 ft 497 kts 273°
2026-04-24 22:06 30.79180 -85.34874 33903 ft 497 kts 273°
2026-04-24 22:07 30.79435 -85.42976 33900 ft 498 kts 273°
2026-04-24 22:07 30.79684 -85.51125 33896 ft 498 kts 273°
2026-04-24 22:08 30.79928 -85.59222 33896 ft 499 kts 273°
2026-04-24 22:08 30.80167 -85.67353 33899 ft 499 kts 273°
2026-04-24 22:09 30.80402 -85.75503 33902 ft 500 kts 273°
2026-04-24 22:09 30.80634 -85.83671 33897 ft 500 kts 272°
2026-04-24 22:10 30.80859 -85.91835 33903 ft 501 kts 272°
2026-04-24 22:10 30.81078 -85.99972 33896 ft 501 kts 272°
2026-04-24 22:11 30.81292 -86.08164 33901 ft 502 kts 272°
2026-04-24 22:11 30.81497 -86.16340 33910 ft 502 kts 272°
2026-04-24 22:12 30.81686 -86.24462 33903 ft 502 kts 272°
2026-04-24 22:12 30.81874 -86.32620 33908 ft 502 kts 272°
2026-04-24 22:13 30.82053 -86.40756 33918 ft 502 kts 272°
2026-04-24 22:13 30.82229 -86.48990 33923 ft 502 kts 272°
2026-04-24 22:14 30.82400 -86.57169 33926 ft 502 kts 272°
2026-04-24 22:14 30.82566 -86.65369 33925 ft 502 kts 271°
2026-04-24 22:15 30.82312 -86.73537 33922 ft 502 kts 267°
2026-04-24 22:15 30.81875 -86.81709 33928 ft 502 kts 267°
2026-04-24 22:16 30.81427 -86.89927 33926 ft 502 kts 266°
2026-04-24 22:16 30.80976 -86.98065 33924 ft 502 kts 267°
2026-04-24 22:17 30.80517 -87.06278 33922 ft 502 kts 267°
2026-04-24 22:17 30.80060 -87.14409 33919 ft 501 kts 267°
2026-04-24 22:18 30.79598 -87.22518 33910 ft 501 kts 267°
2026-04-24 22:18 30.79131 -87.30621 33908 ft 500 kts 267°
2026-04-24 22:19 30.78656 -87.38716 33906 ft 498 kts 267°
2026-04-24 22:19 30.78180 -87.46822 33895 ft 497 kts 267°
2026-04-24 22:20 30.77699 -87.54859 33894 ft 496 kts 268°
2026-04-24 22:20 30.77215 -87.62955 33892 ft 495 kts 267°
2026-04-24 22:21 30.76724 -87.70987 33902 ft 493 kts 267°
2026-04-24 22:21 30.76234 -87.79006 33899 ft 490 kts 267°
2026-04-24 22:22 30.75740 -87.86939 33898 ft 487 kts 267°
2026-04-24 22:22 30.75247 -87.94840 33904 ft 485 kts 267°
2026-04-24 22:23 30.74746 -88.02734 33901 ft 483 kts 268°
2026-04-24 22:23 30.74244 -88.10571 33899 ft 482 kts 268°
2026-04-24 22:24 30.73744 -88.18373 33901 ft 480 kts 268°
2026-04-24 22:24 30.73237 -88.26155 33912 ft 479 kts 268°
2026-04-24 22:25 30.72715 -88.33928 33907 ft 478 kts 266°
2026-04-24 22:25 30.71817 -88.37669 33898 ft 484 kts 248°
2026-04-24 22:25 30.70242 -88.41171 33893 ft 483 kts 248°
2026-04-24 22:25 30.69347 -88.44874 33891 ft 473 kts 267°
2026-04-24 22:26 30.69444 -88.47723 33885 ft 467 kts 281°
2026-04-24 22:26 30.69652 -88.52527 33768 ft 467 kts 250°
2026-04-24 22:26 30.67562 -88.55427 33948 ft 469 kts 221°
2026-04-24 22:27 30.64775 -88.57425 33922 ft 463 kts 218°
2026-04-24 22:27 30.62479 -88.59952 33909 ft 443 kts 238°
2026-04-24 22:27 30.60812 -88.62949 33896 ft 436 kts 244°
2026-04-24 22:28 30.57908 -88.69134 33891 ft 428 kts 246°
2026-04-24 22:28 30.55178 -88.75242 33625 ft 423 kts 247°
2026-04-24 22:28 30.53803 -88.78336 32911 ft 433 kts 247°
2026-04-24 22:29 30.51031 -88.84547 31212 ft 427 kts 246°
2026-04-24 22:29 30.49660 -88.87620 30516 ft 421 kts 246°
2026-04-24 22:29 30.48314 -88.90623 29854 ft 415 kts 246°
2026-04-24 22:30 30.46999 -88.93570 29148 ft 410 kts 246°
2026-04-24 22:30 30.45662 -88.96549 28372 ft 407 kts 246°
2026-04-24 22:30 30.44380 -88.99410 27595 ft 404 kts 246°
2026-04-24 22:30 30.43071 -89.02333 26888 ft 399 kts 246°
2026-04-24 22:31 30.41807 -89.05149 26287 ft 393 kts 246°
2026-04-24 22:31 30.40549 -89.07971 25708 ft 385 kts 248°
2026-04-24 22:31 30.39503 -89.10828 25133 ft 378 kts 251°
2026-04-24 22:31 30.38474 -89.13638 24511 ft 375 kts 251°
2026-04-24 22:32 30.37443 -89.16441 23815 ft 373 kts 251°
2026-04-24 22:32 30.36422 -89.19212 23107 ft 372 kts 251°
2026-04-24 22:32 30.35398 -89.21993 22426 ft 370 kts 251°
2026-04-24 22:32 30.34382 -89.24734 21774 ft 367 kts 251°
2026-04-24 22:33 30.33377 -89.27451 21137 ft 364 kts 251°
2026-04-24 22:33 30.32374 -89.30168 20489 ft 362 kts 250°
2026-04-24 22:33 30.31383 -89.32840 19850 ft 357 kts 250°
2026-04-24 22:33 30.30402 -89.35487 19215 ft 353 kts 250°
2026-04-24 22:34 30.29417 -89.38145 18577 ft 349 kts 250°
2026-04-24 22:34 30.28466 -89.40705 17969 ft 346 kts 250°
2026-04-24 22:34 30.27501 -89.43291 17366 ft 342 kts 250°
2026-04-24 22:34 30.26558 -89.45835 16784 ft 338 kts 250°
2026-04-24 22:35 30.25625 -89.48342 16212 ft 334 kts 250°
2026-04-24 22:35 30.24708 -89.50812 15636 ft 332 kts 250°
2026-04-24 22:35 30.23792 -89.53268 15058 ft 329 kts 250°
2026-04-24 22:35 30.22890 -89.55689 14479 ft 326 kts 250°
2026-04-24 22:36 30.21980 -89.58123 13883 ft 324 kts 250°
2026-04-24 22:36 30.21093 -89.60502 13283 ft 323 kts 250°
2026-04-24 22:36 30.20200 -89.62900 12660 ft 321 kts 250°
2026-04-24 22:36 30.19308 -89.65285 12007 ft 321 kts 249°
2026-04-24 22:37 30.18406 -89.67698 11343 ft 321 kts 249°
2026-04-24 22:37 30.17548 -89.70029 11028 ft 309 kts 251°
2026-04-24 22:37 30.17325 -89.72418 10985 ft 287 kts 277°
2026-04-24 22:37 30.17594 -89.74689 10950 ft 277 kts 278°
2026-04-24 22:38 30.17860 -89.76981 10390 ft 299 kts 278°
2026-04-24 22:38 30.18158 -89.79447 9832 ft 315 kts 278°
2026-04-24 22:38 30.18479 -89.82040 9270 ft 328 kts 278°
2026-04-24 22:38 30.18815 -89.84699 8719 ft 338 kts 278°
2026-04-24 22:39 30.19166 -89.87444 8140 ft 346 kts 278°
2026-04-24 22:39 30.19533 -89.90264 7558 ft 352 kts 278°
2026-04-24 22:39 30.19909 -89.93095 6983 ft 357 kts 278°
2026-04-24 22:39 30.20293 -89.95946 6410 ft 360 kts 278°
2026-04-24 22:40 30.20690 -89.98846 5829 ft 363 kts 278°
2026-04-24 22:40 30.21081 -90.01640 5116 ft 330 kts 278°
2026-04-24 22:40 30.21448 -90.04120 4478 ft 294 kts 278°
2026-04-24 22:40 30.21797 -90.06385 3852 ft 274 kts 278°
2026-04-24 22:41 30.22139 -90.08495 3254 ft 263 kts 278°
2026-04-24 22:41 30.22481 -90.10555 2659 ft 256 kts 278°
2026-04-24 22:41 30.22820 -90.12560 2099 ft 250 kts 278°
2026-04-24 22:41 30.23037 -90.13844 1997 ft 235 kts 276°
2026-04-24 22:42 30.22537 -90.16024 1978 ft 196 kts 230°
2026-04-24 22:42 30.21852 -90.17331 1959 ft 185 kts 246°
2026-04-24 22:42 30.21016 -90.18256 1934 ft 158 kts 207°
2026-04-24 22:42 30.20098 -90.18977 1464 ft 165 kts 218°
2026-04-24 22:43 30.19210 -90.19933 945 ft 182 kts 210°
2026-04-24 22:43 30.18058 -90.20371 1119 ft 165 kts 186°
2026-04-24 22:43 30.17036 -90.20477 1669 ft 139 kts 185°
2026-04-24 22:43 30.16017 -90.20618 2145 ft 161 kts 187°
2026-04-24 22:44 30.14770 -90.20790 2028 ft 183 kts 186°
2026-04-24 22:44 30.13476 -90.20963 2005 ft 189 kts 186°
2026-04-24 22:44 30.12108 -90.21147 1997 ft 197 kts 186°
2026-04-24 22:44 30.10723 -90.21333 1994 ft 203 kts 186°
2026-04-24 22:45 30.09377 -90.21647 1796 ft 187 kts 197°
2026-04-24 22:45 30.08144 -90.22073 1549 ft 179 kts 194°
2026-04-24 22:45 30.06959 -90.22442 1318 ft 173 kts 195°
2026-04-24 22:45 30.05872 -90.22790 1155 ft 147 kts 194°
2026-04-24 22:46 30.04936 -90.23087 923 ft 128 kts 194°
2026-04-24 22:46 30.04135 -90.23341 736 ft 109 kts 193°
2026-04-24 22:46 30.03292 -90.23605 677 ft 140 kts 194°
2026-04-24 22:46 30.02374 -90.23899 446 ft 126 kts 193°
2026-04-24 22:47 30.01591 -90.24149 273 ft 110 kts 192°
2026-04-24 22:47 30.00817 -90.24391 182 ft 111 kts 193°
2026-04-24 22:47 30.00127 -90.24612 11 ft 94 kts 193°
2026-04-24 22:47 29.99527 -90.24799 9 ft 86 kts 198°
2026-04-24 22:48 29.99089 -90.24935 9 ft 45 kts 192°
2026-04-24 22:48 29.98844 -90.25021 9 ft 30 kts 205°
2026-04-24 22:48 29.98796 -90.25114 9 ft 9 kts 250°
2026-04-24 22:48 29.98835 -90.25156 9 ft 13 kts 357°
2026-04-24 22:49 29.98930 -90.25131 9 ft 14 kts 16°
2026-04-24 22:49 29.99048 -90.25091 9 ft 18 kts 15°
2026-04-24 22:49 29.99170 -90.25108 9 ft 18 kts 295°
2026-04-24 22:49 29.99188 -90.25256 9 ft 19 kts 272°
2026-04-24 22:50 29.99198 -90.25414 9 ft 19 kts 275°
2026-04-24 22:50 29.99206 -90.25574 9 ft 20 kts 274°
2026-04-24 22:50 29.99223 -90.25743 9 ft 21 kts 281°
2026-04-24 22:50 29.99303 -90.25861 9 ft 18 kts 332°
2026-04-24 22:51 29.99366 -90.25987 9 ft 19 kts 285°
2026-04-24 22:51 29.99402 -90.26141 9 ft 20 kts 288°
2026-04-24 22:51 29.99440 -90.26299 9 ft 20 kts 287°
2026-04-24 22:51 29.99549 -90.26373 9 ft 20 kts 13°
2026-04-24 22:52 29.99668 -90.26411 9 ft 20 kts 279°
2026-04-24 22:52 29.99709 -90.26524 9 ft 6 kts 347°
2026-04-24 22:52 29.99714 -90.26523 9 ft 0 kts 14°